Погода в Пейхии

Новая Зеландия     35°16′52″S   174°05′30″E
темп.,
°C
ветер,
м/с
пор.,
м/с
влажн.,
%
обл.,
%
осадки,
мм/ч
давл.,
гПа
погр.,
м
11 мая, вт
вт1100:00+15с2493100 0.1 1026180
03:00+15ссз2493100 0.0 1025254
06:00+15ссз249519 0.1 1024201
09:00+18с499195 0.4 1024764
12:00+19ссз4987100 0.9 1024866
15:00+19ссз4985100 0.6 1022771
18:00+18сз3990100 0.9 1022589
21:00+17сз289456 0.1 1023411
12 мая, ср
ср1200:00+17сз31096100 1.1 1022482
03:00+17ссз4109894 5.9 1021488
06:00+17сз2696100 6.6 1021199
09:00+18сз2993100 0.2 1021380
12:00+21зсз3672100 0.2 1021720
15:00+22з356887 0.1 1020781
18:00+17зюз22910 0.1 102029
21:00+15юз229617 0.0 102153
13 мая, чт
чт1300:00+14зюз229623 0.0 102259
03:00+14юз239749 0.0 102187
06:00+14юз239592 0.0 102175
09:00+16юз1384100 0.0 1021196
12:00+19сз1361100 0.0 10201110
15:00+19сз236192 0.0 10181130
18:00+14з248374 0.0 1019148
21:00+12зюз229245 0.0 102067
14 мая, пт
пт1400:00+11зюз129389 0.0 101959
03:00+11зюз119493 0.0 101852
06:00+12ююв1090100 0.0 101764
09:00+14в1281100 0.0 1017244
12:00+17св2686100 0.1 1015508
15:00+19ссв3988100 0.2 1012716
18:00+17ссз51292100 1.7 1011796
21:00+18с71597100 5.3 10091218
15 мая, сб
сб1500:00+18ссз51398100 18.3 1006938
03:00+18зсз4119656 4.9 1006739
06:00+17з311940 4.9 1007644
09:00+18з310907 0.0 1009797
12:00+20зюз37621 0.0 10101048
15:00+20зюз36664 0.0 1011969
18:00+15юз25880 0.0 1013261
21:00+12юз22932 0.0 101565